sat.trackr.live / text

‹ back to catalog

STARLINK-35533

NORAD 66429 · 2025-259H

PAYLOAD ACTIVE UNKNOWN

§ Identity

Operator
Country
US
Launch date
2025-11-11
Launch site
AFETR
Launch vehicle
Mass (kg)
RCS (m²)

Purposes: comms

External: N2YO · Heavens-Above · Gunter

§ Orbital elements

Epoch: 2026-05-25T04:43:18.317856Z

Period
94.27 min
Inclination
43.0000°
Eccentricity
0.0000888
Mean motion
15.27581630 rev/d
Perigee alt
482.4 km
Apogee alt
483.7 km
Semi-major
6,861.2 km
B*
4.9683e-4
RAAN
202.1423°
Arg perigee
275.3538°
Mean anomaly
84.7213°
Rev number
3,119

§ Raw data

STARLINK-355331 66429U 25259H   26145.19673979  .00013435  00000+0  49683-3 0  99972 66429  43.0000 202.1423 0000888 275.3538  84.7213 15.27581630 31194

JSON: /api/v1/satellites/66429 · /tle

For live sub-satellite position, see the globe view (requires WebGL).

§ Visibility from observer

Set your observer location to see the next 7 days of passes ≥ 10°. The values pass through the URL so the page stays shareable.

No JS? Fill the form by hand. The geolocation button needs JavaScript.